| time (UTC) | temp F | wind direction | speed MPH | gust MPH | rain 1hr in | rain 24hr in | rain mn in | humidity % | barometer mb |
| 20260906184547 | 71 | 118 | 2.0 | 10.0 | 0.00 | 0.15 | 0.15 | 94 | 1018.4 |
| 20260906183045 | 74 | 165 | 4.0 | 12.0 | 0.02 | 0.15 | 0.15 | 88 | 1018.6 |
| 20260906181551 | 78 | 0 | 0.0 | 1.0 | 0.15 | 0.15 | 0.15 | 96 | 1018.3 |
| 20260906180053 | 78 | 0 | 0.0 | 1.0 | 0.15 | 0.15 | 0.15 | 98 | 1018.1 |
| 20260906174545 | 77 | 0 | 1.0 | 5.0 | 0.15 | 0.15 | 0.15 | 97 | 1018.1 |
| 20260906173051 | 78 | 265 | 0.0 | 4.0 | 0.12 | 0.12 | 0.12 | 97 | 1018.1 |
| 20260906171544 | 78 | 198 | 2.0 | 5.0 | 0.00 | 0.00 | 0.00 | 94 | 1018.6 |
| 20260906170043 | 78 | 250 | 2.0 | 6.0 | 0.00 | 0.00 | 0.00 | 95 | 1018.7 |
| 20260906164545 | 79 | 0 | 0.0 | 5.0 | 0.00 | 0.00 | 0.00 | 93 | 1018.5 |
| 20260906163044 | 79 | 0 | 1.0 | 6.0 | 0.00 | 0.00 | 0.00 | 93 | 1018.1 |
| 20260906161543 | 79 | 207 | 2.0 | 7.0 | 0.00 | 0.00 | 0.00 | 92 | 1017.7 |
| 20260906160044 | 79 | 208 | 1.0 | 7.0 | 0.00 | 0.00 | 0.00 | 92 | 1017.6 |
| 20260906154554 | 79 | 0 | 0.0 | 4.0 | 0.00 | 0.00 | 0.00 | 93 | 1017.5 |
| 20260906153045 | 78 | 208 | 0.0 | 3.0 | 0.00 | 0.00 | 0.00 | 96 | 1017.0 |
| 20260906151543 | 77 | 257 | 1.0 | 6.0 | 0.00 | 0.00 | 0.00 | 97 | 1017.3 |
| 20260906150049 | 77 | 143 | 0.0 | 2.0 | 0.00 | 0.00 | 0.00 | 98 | 1017.7 |
| 20260906144544 | 76 | 217 | 1.0 | 4.0 | 0.00 | 0.00 | 0.00 | 99 | 1017.7 |
| 20260906143100 | 76 | 201 | 1.0 | 5.0 | 0.00 | 0.00 | 0.00 | 99 | 1017.5 |
| 20260906141542 | 76 | 207 | 0.0 | 4.0 | 0.00 | 0.00 | 0.00 | 100 | 1017.5 |
| 20260906140047 | 75 | 142 | 1.0 | 6.0 | 0.00 | 0.00 | 0.00 | 100 | 1017.1 |
| 20260906134550 | 75 | 172 | 0.0 | 5.0 | 0.00 | 0.07 | 0.00 | 100 | 1017.0 |
| 20260906133050 | 75 | 0 | 1.0 | 6.0 | 0.00 | 0.07 | 0.00 | 100 | 1017.0 |
| 20260906131550 | 75 | 169 | 1.0 | 5.0 | 0.00 | 0.07 | 0.00 | 100 | 1017.0 |
| 20260906130047 | 74 | 169 | 1.0 | 4.0 | 0.00 | 0.07 | 0.00 | 100 | 1016.8 |
| 20260906124544 | 74 | 211 | 0.0 | 6.0 | 0.00 | 0.26 | 0.00 | 100 | 1016.8 |
| 20260906123048 | 74 | 196 | 0.0 | 4.0 | 0.00 | 0.26 | 0.00 | 100 | 1016.7 |
| 20260906121546 | 74 | 204 | 1.0 | 6.0 | 0.00 | 0.26 | 0.00 | 100 | 1016.7 |
| 20260906120047 | 74 | 201 | 0.0 | 4.0 | 0.00 | 0.26 | 0.00 | 100 | 1016.4 |
| 20260906114550 | 74 | 129 | 1.0 | 5.0 | 0.00 | 0.30 | 0.00 | 100 | 1016.6 |
| 20260906113049 | 74 | 106 | 1.0 | 5.0 | 0.00 | 0.30 | 0.00 | 100 | 1016.3 |
| 20260906111545 | 74 | 0 | 0.0 | 6.0 | 0.00 | 0.30 | 0.00 | 100 | 1016.1 |
| 20260906110044 | 73 | 0 | 0.0 | 3.0 | 0.00 | 0.30 | 0.00 | 100 | 1015.9 |
| 20260906104549 | 73 | 0 | 0.0 | 4.0 | 0.00 | 0.31 | 0.00 | 100 | 1016.0 |
| 20260906103045 | 73 | 0 | 0.0 | 3.0 | 0.00 | 0.31 | 0.00 | 100 | 1015.9 |
| 20260906101544 | 73 | 165 | 0.0 | 2.0 | 0.00 | 0.31 | 0.00 | 100 | 1015.9 |
| 20260906100044 | 73 | 0 | 0.0 | 2.0 | 0.00 | 0.31 | 0.00 | 100 | 1015.8 |
| 20260906094548 | 73 | 0 | 0.0 | 2.0 | 0.00 | 0.32 | 0.00 | 100 | 1015.9 |
| 20260906093046 | 74 | 0 | 0.0 | 1.0 | 0.00 | 0.32 | 0.00 | 100 | 1016.0 |
| 20260906091543 | 74 | 0 | 0.0 | 1.0 | 0.00 | 0.32 | 0.00 | 100 | 1016.1 |
| 20260906090049 | 74 | 0 | 0.0 | 3.0 | 0.00 | 0.32 | 0.00 | 100 | 1016.3 |
| 20260906084545 | 74 | 0 | 0.0 | 1.0 | 0.00 | 0.32 | 0.00 | 100 | 1016.5 |
| 20260906083049 | 74 | 0 | 0.0 | 4.0 | 0.00 | 0.32 | 0.00 | 100 | 1016.1 |
| 20260906081551 | 74 | 0 | 0.0 | 2.0 | 0.00 | 0.32 | 0.00 | 100 | 1016.0 |
| 20260906080041 | 74 | 0 | 0.0 | 2.0 | 0.00 | 0.32 | 0.00 | 100 | 1015.9 |
| 20260906074547 | 74 | 0 | 0.0 | 0.0 | 0.00 | 0.32 | 0.00 | 100 | 1015.8 |
| 20260906073045 | 73 | 0 | 0.0 | 3.0 | 0.00 | 0.32 | 0.00 | 100 | 1015.9 |
| 20260906071556 | 73 | 205 | 0.0 | 1.0 | 0.00 | 0.32 | 0.00 | 100 | 1015.9 |
| 20260906070044 | 73 | 0 | 0.0 | 1.0 | 0.00 | 0.32 | 0.00 | 99 | 1016.1 |
| 20260906064546 | 73 | 0 | 0.0 | 1.0 | 0.00 | 0.32 | 0.00 | 99 | 1016.3 |
| 20260906063045 | 73 | 166 | 0.0 | 1.0 | 0.00 | 0.32 | 0.00 | 99 | 1016.3 |
| 20260906061547 | 73 | 0 | 0.0 | 0.0 | 0.00 | 0.32 | 0.00 | 98 | 1016.3 |
| 20260906060044 | 73 | 0 | 0.0 | 0.0 | 0.00 | 0.32 | 0.00 | 98 | 1016.2 |
| 20260906054550 | 73 | 159 | 0.0 | 1.0 | 0.00 | 0.32 | 0.00 | 97 | 1016.3 |
| 20260906053045 | 73 | 0 | 0.0 | 1.0 | 0.00 | 0.32 | 0.00 | 96 | 1016.4 |
| 20260906051550 | 74 | 0 | 0.0 | 0.0 | 0.00 | 0.32 | 0.00 | 96 | 1016.3 |
| 20260906050113 | 74 | 0 | 0.0 | 2.0 | 0.00 | 0.32 | 0.00 | 96 | 1016.4 |
| 20260906044550 | 74 | 0 | 0.0 | 3.0 | 0.00 | 0.32 | 0.32 | 95 | 1016.3 |
| 20260906043048 | 74 | 0 | 0.0 | 2.0 | 0.00 | 0.32 | 0.32 | 94 | 1016.5 |
| 20260906041544 | 74 | 0 | 0.0 | 3.0 | 0.00 | 0.32 | 0.32 | 94 | 1016.6 |
| 20260906040049 | 74 | 96 | 0.0 | 4.0 | 0.00 | 0.32 | 0.32 | 93 | 1016.7 |
| 20260906034545 | 75 | 165 | 0.0 | 2.0 | 0.00 | 0.32 | 0.32 | 93 | 1016.7 |
| 20260906033045 | 75 | 0 | 0.0 | 4.0 | 0.00 | 0.32 | 0.32 | 92 | 1016.6 |
| 20260906031543 | 75 | 0 | 0.0 | 2.0 | 0.00 | 0.32 | 0.32 | 91 | 1016.5 |
| 20260906030052 | 75 | 0 | 0.0 | 2.0 | 0.00 | 0.32 | 0.32 | 90 | 1016.5 |
| 20260906024547 | 76 | 0 | 0.0 | 0.0 | 0.00 | 0.32 | 0.32 | 89 | 1016.3 |
| 20260906023044 | 76 | 0 | 0.0 | 5.0 | 0.00 | 0.32 | 0.32 | 88 | 1016.2 |
| 20260906021555 | 77 | 103 | 0.0 | 2.0 | 0.00 | 0.32 | 0.32 | 87 | 1016.3 |
| 20260906020048 | 78 | 0 | 1.0 | 4.0 | 0.00 | 0.32 | 0.32 | 86 | 1016.1 |
| 20260906014546 | 78 | 0 | 0.0 | 2.0 | 0.00 | 0.32 | 0.32 | 84 | 1015.9 |
| 20260906013044 | 79 | 190 | 0.0 | 3.0 | 0.00 | 0.32 | 0.32 | 83 | 1015.8 |
| 20260906011544 | 79 | 0 | 0.0 | 6.0 | 0.00 | 0.32 | 0.32 | 81 | 1015.7 |
| 20260906010044 | 80 | 0 | 1.0 | 4.0 | 0.00 | 0.32 | 0.32 | 79 | 1015.6 |
| 20260906004543 | 81 | 0 | 0.0 | 4.0 | 0.00 | 0.32 | 0.32 | 78 | 1015.4 |
| 20260906003050 | 82 | 89 | 1.0 | 7.0 | 0.00 | 0.32 | 0.32 | 77 | 1015.2 |
| 20260906001546 | 83 | 139 | 1.0 | 6.0 | 0.00 | 0.32 | 0.32 | 75 | 1015.2 |
| 20260906000044 | 84 | 85 | 1.0 | 11.0 | 0.00 | 0.32 | 0.32 | 73 | 1015.2 |
| 20260905234554 | 85 | 113 | 1.0 | 9.0 | 0.00 | 0.32 | 0.32 | 70 | 1015.1 |
| 20260905233044 | 86 | 236 | 2.0 | 8.0 | 0.00 | 0.32 | 0.32 | 66 | 1015.2 |
| 20260905231546 | 87 | 252 | 2.0 | 9.0 | 0.00 | 0.32 | 0.32 | 64 | 1015.1 |
| 20260905230050 | 88 | 213 | 2.0 | 9.0 | 0.00 | 0.32 | 0.32 | 63 | 1015.1 |
| 20260905224545 | 88 | 265 | 2.0 | 10.0 | 0.00 | 0.32 | 0.32 | 61 | 1014.9 |
| 20260905223047 | 89 | 260 | 3.0 | 10.0 | 0.00 | 0.32 | 0.32 | 59 | 1014.8 |
| 20260905221544 | 89 | 181 | 3.0 | 10.0 | 0.00 | 0.32 | 0.32 | 57 | 1014.7 |
| 20260905220044 | 90 | 204 | 2.0 | 8.0 | 0.00 | 0.32 | 0.32 | 56 | 1014.5 |
| 20260905214601 | 91 | 178 | 3.0 | 10.0 | 0.00 | 0.32 | 0.32 | 54 | 1014.5 |
| 20260905213046 | 91 | 166 | 1.0 | 7.0 | 0.00 | 0.32 | 0.32 | 57 | 1014.5 |
| 20260905211541 | 90 | 139 | 2.0 | 7.0 | 0.00 | 0.32 | 0.32 | 57 | 1014.7 |
| 20260905210048 | 90 | 179 | 1.0 | 7.0 | 0.00 | 0.32 | 0.32 | 58 | 1014.6 |
| 20260905204545 | 90 | 137 | 2.0 | 8.0 | 0.00 | 0.32 | 0.32 | 58 | 1014.8 |
| 20260905203046 | 89 | 128 | 2.0 | 8.0 | 0.00 | 0.32 | 0.32 | 61 | 1014.5 |
| 20260905201545 | 88 | 144 | 1.0 | 5.0 | 0.00 | 0.32 | 0.32 | 63 | 1014.4 |
| 20260905200052 | 88 | 163 | 2.0 | 5.0 | 0.00 | 0.32 | 0.32 | 63 | 1014.5 |
| 20260905194555 | 88 | 92 | 1.0 | 7.0 | 0.00 | 0.32 | 0.32 | 65 | 1014.7 |
| 20260905193044 | 86 | 262 | 2.0 | 7.0 | 0.00 | 0.32 | 0.32 | 68 | 1014.5 |
| 20260905191545 | 85 | 88 | 1.0 | 5.0 | 0.00 | 0.32 | 0.32 | 68 | 1014.4 |
| 20260905190042 | 85 | 161 | 1.0 | 5.0 | 0.00 | 0.32 | 0.32 | 68 | 1014.3 |